Location: Dompnac
(44.5644°N, 4.1026°E)
Time: 18:37:54
(UTC+00:00)

Cosmos 1634 Rocket - Pass Details

Date: 18 January 2021
Orbit: 961 x 991 km, 82.9° (Epoch: 05 March)

Event Time Altitude Azimuth Distance (km) Brightness Sun altitude
Rises 06:24:06 0° 187° (S) 3,632 7.2 -9.1°
Reaches altitude 10° 06:26:35 10° 188° (S) 2,688 6.5 -8.7°
Maximum altitude 06:32:44 86° 276° (W) 969 4.0 -7.7°
Drops below altitude 10° 06:38:57 10° 7° (N) 2,708 6.2 -6.6°
Sets 06:41:28 0° 8° (N) 3,661 6.9 -6.2°
